Date String (YYYY-MM-DD hh:mm:ss) UTC,Instrument flags,Ambient pressure (hPa),Sample flow (lpm),Bypass flow (lpm),Sample temperature (°C),Ambient temperature (°C),ASC tube jacket temperature (°C),LED temperature (°C),Box temperature (°C),Sample RH (%),Span deviation,Mass concentration (μg/m³),Mass concentration (μg/m³),Mass concentration (μg/m³)
DateTimeUTC,F1_M11,P_M11,Q1_M11,Q2_M11,T1_M11,T2_M11,T3_M11,T4_M11,T5_M11,U1_M11,ZSPAN_M11,X0_M11,X2_M11,X1_M11
2022-10-08 19:00:00,,0835.0,5.00,0.00,29.0,27.9,00.0,37.6,30.9,18.0,-001.6,0015.26,0011.03,0010.35
2022-10-08 19:01:00,,0835.1,4.99,0.00,29.0,27.9,00.0,37.6,30.9,18.5,-001.8,0015.39,0011.02,0010.34
2022-10-08 19:02:00,,0835.1,5.01,0.00,29.0,27.9,00.0,37.6,30.9,18.5,-001.5,0015.30,0011.03,0010.34
2022-10-08 19:03:00,,0835.0,4.99,0.00,29.0,28.0,00.0,37.6,30.9,18.5,-001.4,0015.08,0011.03,0010.36
2022-10-08 19:04:00,,0834.9,5.01,0.00,29.0,28.0,00.0,37.7,31.0,18.7,-001.5,0015.46,0011.07,0010.39
2022-10-08 19:05:00,,0835.0,4.99,0.00,29.1,28.0,00.0,37.7,31.0,18.9,-001.5,0015.77,0011.09,0010.41
2022-10-08 19:06:00,,0835.0,4.99,0.00,29.1,28.0,00.0,37.7,31.0,18.9,-001.5,0016.16,0011.16,0010.48
2022-10-08 19:07:00,,0834.9,5.00,0.00,29.1,28.0,00.0,37.7,31.0,18.7,-001.5,0016.99,0011.22,0010.54
2022-10-08 19:08:00,,0834.9,5.00,0.00,29.1,28.1,00.0,37.7,31.0,18.3,-001.4,0017.15,0011.29,0010.60
2022-10-08 19:09:00,,0834.9,5.00,0.00,29.1,28.1,00.0,37.7,31.0,18.0,-001.4,0017.22,0011.36,0010.67
2022-10-08 19:10:00,,0834.9,4.99,0.00,29.2,28.1,00.0,37.8,31.0,18.0,-001.5,0017.41,0011.43,0010.72
2022-10-08 19:11:00,,0834.8,5.02,0.00,29.2,28.1,00.0,37.8,31.0,18.1,-001.5,0017.42,0011.44,0010.75
2022-10-08 19:12:00,,0834.9,4.99,0.00,29.2,28.1,00.0,37.8,31.1,17.8,-001.4,0017.31,0011.44,0010.75
2022-10-08 19:13:00,,0834.8,5.01,0.00,29.2,28.1,00.0,37.8,31.1,17.6,-001.5,0017.33,0011.40,0010.73
2022-10-08 19:14:00,,0834.9,4.99,0.00,29.2,28.2,00.0,37.8,31.1,17.6,-001.4,0017.12,0011.30,0010.69
2022-10-08 19:15:00,,0834.9,5.02,0.00,29.2,28.2,00.0,37.8,31.1,17.3,-001.4,0016.90,0011.22,0010.66
2022-10-08 19:16:00,,0834.9,4.99,0.00,29.3,28.2,00.0,37.9,31.2,17.1,-001.1,0016.60,0011.21,0010.64
2022-10-08 19:17:00,,0834.9,5.00,0.00,29.3,28.2,00.0,37.9,31.1,17.1,-000.8,0016.16,0011.15,0010.58
2022-10-08 19:18:00,,0834.8,5.01,0.00,29.3,28.2,00.0,37.9,31.1,16.8,-000.7,0015.21,0011.07,0010.52
2022-10-08 19:19:00,,0834.7,4.99,0.00,29.3,28.2,00.0,37.9,31.2,17.0,-000.5,0014.87,0010.96,0010.43
2022-10-08 19:20:00,,0834.7,5.02,0.00,29.3,28.2,00.0,37.9,31.2,16.6,-000.7,0014.70,0010.83,0010.32
2022-10-08 19:21:00,,0834.7,4.99,0.00,29.3,28.2,00.0,37.9,31.2,16.0,-000.6,0014.54,0010.65,0010.18
2022-10-08 19:22:00,,0834.6,5.01,0.00,29.3,28.2,00.0,38.0,31.2,16.3,-000.4,0014.84,0010.51,0010.05
2022-10-08 19:23:00,,0834.7,5.00,0.00,29.3,28.3,00.0,38.0,31.2,16.9,-000.4,0014.91,0010.45,0009.96
2022-10-08 19:24:00,,0834.7,4.99,0.00,29.3,28.3,00.0,38.0,31.2,16.6,-000.3,0014.89,0010.40,0009.90
2022-10-08 19:25:00,,0834.7,5.01,0.00,29.4,28.3,00.0,38.0,31.2,15.8,-000.3,0015.40,0010.31,0009.79
2022-10-08 19:26:00,,0834.7,4.99,0.00,29.4,28.3,00.0,38.0,31.3,15.1,-000.2,0015.08,0010.16,0009.61
2022-10-08 19:27:00,,0834.7,5.02,0.00,29.4,28.3,00.0,38.0,31.3,15.0,-000.2,0014.86,0009.97,0009.44
2022-10-08 19:28:00,,0834.7,4.99,0.00,29.4,28.3,00.0,38.0,31.3,14.9,-000.4,0014.73,0009.83,0009.27
2022-10-08 19:29:00,,0834.7,5.00,0.00,29.4,28.4,00.0,38.1,31.3,14.8,-000.5,0014.95,0009.68,0009.09
2022-10-08 19:30:00,,0834.7,5.00,0.00,29.4,28.4,00.0,38.1,31.3,15.0,-000.7,0015.39,0009.58,0008.97
2022-10-08 19:31:00,,0834.6,5.00,0.00,29.5,28.4,00.0,38.1,31.3,16.1,-000.8,0015.80,0009.54,0008.92
2022-10-08 19:32:00,,0834.6,4.99,0.00,29.5,28.4,00.0,38.1,31.4,16.0,-000.8,0015.53,0009.50,0008.88
2022-10-08 19:33:00,,0834.6,5.01,0.00,29.5,28.4,00.0,38.1,31.4,15.9,-000.5,0015.19,0009.46,0008.85
2022-10-08 19:34:00,,0834.6,4.99,0.00,29.5,28.4,00.0,38.1,31.4,16.2,-000.6,0015.20,0009.32,0008.76
2022-10-08 19:35:00,,0834.5,5.01,0.00,29.5,28.5,00.0,38.2,31.4,17.4,-000.7,0014.91,0009.23,0008.70
2022-10-08 19:36:00,,0834.4,4.99,0.00,29.6,28.5,00.0,38.2,31.4,17.1,-000.9,0014.47,0009.33,0008.78
2022-10-08 19:37:00,,0834.5,5.01,0.00,29.6,28.5,00.0,38.2,31.5,17.1,-000.9,0014.64,0009.51,0008.90
2022-10-08 19:38:00,,0834.5,4.99,0.00,29.6,28.5,00.0,38.2,31.5,16.9,-000.7,0015.05,0009.66,0009.02
2022-10-08 19:39:00,,0834.4,5.00,0.00,29.6,28.5,00.0,38.2,31.5,16.9,-000.7,0015.37,0009.79,0009.13
2022-10-08 19:40:00,,0834.4,5.01,0.00,29.6,28.6,00.0,38.2,31.5,17.1,-000.5,0015.31,0009.87,0009.26
2022-10-08 19:41:00,,0834.4,4.99,0.00,29.6,28.6,00.0,38.3,31.5,16.8,-000.5,0014.93,0009.96,0009.36
2022-10-08 19:42:00,,0834.5,5.00,0.00,29.6,28.6,00.0,38.3,31.5,16.6,-000.5,0014.54,0010.00,0009.41
2022-10-08 19:43:00,,0834.4,5.00,0.00,29.7,28.6,00.0,38.3,31.5,16.8,-000.5,0014.58,0010.05,0009.44
2022-10-08 19:44:00,,0834.4,4.99,0.00,29.7,28.6,00.0,38.3,31.5,16.5,-000.8,0014.54,0010.11,0009.51
2022-10-08 19:45:00,,0834.4,5.00,0.00,29.7,28.6,00.0,38.3,31.6,16.3,-000.6,0014.20,0010.22,0009.60
2022-10-08 19:46:00,,0834.4,5.00,0.00,29.7,28.6,00.0,38.3,31.6,16.4,-000.5,0014.41,0010.31,0009.68
2022-10-08 19:47:00,,0834.3,5.01,0.00,29.7,28.6,00.0,38.3,31.6,16.6,-000.2,0014.52,0010.31,0009.67
2022-10-08 19:48:00,,0834.3,4.99,0.00,29.7,28.7,00.0,38.4,31.6,16.7,-000.2,0014.42,0010.26,0009.65
2022-10-08 19:49:00,,0834.3,5.00,0.00,29.8,28.7,00.0,38.4,31.6,16.3,-000.3,0014.17,0010.18,0009.61
2022-10-08 19:50:00,,0834.3,5.00,0.00,29.8,28.7,00.0,38.4,31.6,16.6,-000.2,0013.88,0010.12,0009.59
2022-10-08 19:51:00,,0834.3,4.99,0.00,29.8,28.7,00.0,38.4,31.7,16.8,-000.4,0013.70,0010.15,0009.58
2022-10-08 19:52:00,,0834.3,5.00,0.00,29.8,28.7,00.0,38.4,31.7,17.1,-000.6,0013.84,0010.23,0009.62
2022-10-08 19:53:00,,0834.2,4.99,0.00,29.8,28.7,00.0,38.4,31.7,16.9,-000.5,0013.90,0010.27,0009.64
2022-10-08 19:54:00,,0834.2,5.00,0.00,29.8,28.7,00.0,38.5,31.7,16.5,-000.2,0013.98,0010.32,0009.70
2022-10-08 19:55:00,,0834.1,5.00,0.00,29.8,28.7,00.0,38.5,31.7,16.3,-000.3,0014.06,0010.32,0009.70
2022-10-08 19:56:00,,0834.2,5.01,0.00,29.8,28.7,00.0,38.5,31.7,16.6,-000.5,0014.11,0010.33,0009.68
2022-10-08 19:57:00,,0834.1,4.99,0.00,29.8,28.7,00.0,38.5,31.7,16.6,-000.7,0014.14,0010.35,0009.68
2022-10-08 19:58:00,,0834.1,5.01,0.00,29.9,28.8,00.0,38.5,31.7,16.4,-000.9,0014.53,0010.32,0009.68
2022-10-08 19:59:00,,0834.1,5.00,0.00,29.9,28.8,00.0,38.5,31.7,16.3,-000.9,0014.64,0010.33,0009.68
